Belgrade, MT

10:05 AM MST on February 27, 2017 (GMT -0700)
Gallatin

Weather History for KBZN - February, 2013

Change the Weather History Date:

Monday, February 25, 2013

  Actual Average Record
Temperature  
Mean Temperature 21 °F 30 °F  
Max Temperature 34 °F 42 °F 62 °F (1995)
Min Temperature 7 °F 17 °F -30 °F (2003)
Degree Days  
Heating Degree Days 44 35  
Month to date heating degree days 976 955  
Since 1 July heating degree days 5611 5477  
Cooling Degree Days 0 0  
Month to date cooling degree days 0 0  
Year to date cooling degree days 0 0  
Moisture  
Dew Point 14 °F    
Average Humidity 72    
Maximum Humidity 92    
Minimum Humidity 51    
Precipitation  
Precipitation T in 0.02 in 0.16 in (2014)
Month to date precipitation 0.07 0.37  
Year to date precipitation 0.31 0.85  
Snow  
Snow T in 0.20 in 3.00 in (2014)
Month to date snowfall 1.0 4.3  
Since 1 July snowfall 17.9 21.7  
Snow Depth 4.00 in    
Sea Level Pressure  
Sea Level Pressure 30.07 in    
Wind  
Wind Speed 5 mph (SE)    
Max Wind Speed 14 mph    
Max Gust Speed 16 mph    
Visibility 9 miles    
Events Fog    
T = Trace of Precipitation, MM = Missing Value Source: NWS Daily Summary

Daily Weather History Graph

Daily Weather History Graph

Search for Another Location

Airport or City:

Trip Planner

Search our weather history database for the weather conditions in past years. The results will help you decide how hot, cold, wet, or windy it might be!

Date:

Astronomy

Feb. 25, 2013 Rise Set
Actual Time 7:09 AM MST 6:06 PM MST
Civil Twilight 6:39 AM MST 6:36 PM MST
Nautical Twilight 6:05 AM MST 7:10 PM MST
Astronomical Twilight 5:30 AM MST 7:45 PM MST
Moon 6:26 PM MST (2/25) 6:39 AM MST (2/25)
Length of Visible Light 11h 56m
Length of Day
10h 56m
Full, 100% of the Moon is Illuminated
Feb 25
Full
Feb 25
Full
Mar 4
Last Quarter
Mar 11
New
Mar 19
First Quarter

Hourly Weather History & Observations

Time (MST) Temp. Windchill Dew Point Humidity Pressure Visibility Wind Dir Wind Speed Gust Speed Precip Events Conditions
12:56 AM 17.1 °F 6.6 °F 8.1 °F 68% 30.19 in 10.0 mi SE 8.1 mph - N/A   Clear
1:56 AM 9.0 °F -0.9 °F 3.0 °F 77% 30.22 in 10.0 mi ESE 5.8 mph - N/A   Clear
2:56 AM 15.1 °F 4.2 °F 7.0 °F 70% 30.18 in 10.0 mi South 8.1 mph - N/A   Clear
3:56 AM 10.0 °F -0.9 °F 5.0 °F 80% 30.18 in 10.0 mi SE 6.9 mph - N/A   Clear
4:56 AM 9.0 °F 2.4 °F 3.0 °F 77% 30.18 in 10.0 mi SE 3.5 mph - N/A   Clear
5:56 AM 9.0 °F 0.6 °F 3.9 °F 80% 30.16 in 10.0 mi ESE 4.6 mph - N/A   Mostly Cloudy
6:56 AM 12.9 °F 1.6 °F 6.1 °F 74% 30.14 in 10.0 mi SSE 8.1 mph - N/A   Partly Cloudy
7:56 AM 10.9 °F 2.9 °F 5.0 °F 77% 30.13 in 10.0 mi SSE 4.6 mph - N/A   Clear
8:56 AM 17.1 °F 10.0 °F 9.0 °F 71% 30.09 in 10.0 mi North 4.6 mph - N/A   Clear
9:56 AM 18.0 °F - 10.9 °F 74% 30.08 in 10.0 mi Calm Calm - N/A   Clear
10:56 AM 25.0 °F - 12.0 °F 58% 30.03 in 10.0 mi Calm Calm - N/A   Clear
11:56 AM 28.0 °F - 14.0 °F 56% 30.01 in 10.0 mi Calm Calm - N/A   Clear
12:56 PM 28.0 °F 21.7 °F 16.0 °F 61% 29.98 in 10.0 mi SSW 5.8 mph - N/A   Clear
1:56 PM 30.0 °F 25.2 °F 15.1 °F 54% 29.99 in 10.0 mi South 4.6 mph - N/A   Overcast
2:56 PM 30.9 °F - 18.0 °F 59% 29.96 in 10.0 mi Calm Calm - N/A   Overcast
3:56 PM 33.1 °F 30.0 °F 18.0 °F 54% 29.99 in 10.0 mi Variable 3.5 mph - N/A   Overcast
4:56 PM 30.9 °F 25.2 °F 23.0 °F 72% 30.01 in 10.0 mi East 5.8 mph - N/A   Overcast
5:56 PM 30.9 °F 23.5 °F 23.0 °F 72% 30.03 in 10.0 mi South 8.1 mph - N/A   Overcast
6:56 PM 30.0 °F 23.2 °F 23.0 °F 75% 30.03 in 10.0 mi East 6.9 mph - N/A   Overcast
7:56 PM 30.0 °F 23.2 °F 23.0 °F 75% 30.05 in 10.0 mi ENE 6.9 mph - N/A   Overcast
8:56 PM 28.0 °F 20.8 °F 24.1 °F 85% 30.04 in 10.0 mi East 6.9 mph - 0.00 in   Overcast
9:56 PM 25.0 °F - 21.9 °F 88% 30.06 in 10.0 mi Calm Calm - N/A   Mostly Cloudy
10:56 PM 21.9 °F 15.7 °F 19.0 °F 89% 30.06 in 10.0 mi SSW 4.6 mph - N/A   Clear
11:43 PM 17.6 °F 12.3 °F 15.8 °F 93% 29.93 in 1.8 mi East 3.5 mph - N/A   Partly Cloudy
11:46 PM 15.8 °F 8.6 °F 15.8 °F 100% 29.94 in 0.8 mi East 4.6 mph - N/A   Partly Cloudy
11:56 PM 14.0 °F 5.1 °F 12.0 °F 92% 30.10 in 0.2 mi ESE 5.8 mph - N/A Fog Light Freezing Fog